Regional Weather Roundup
Issued by NWS

Home | Current Version | Previous Version | Graphics & Text | Print | Product List | Glossary On
Versions: 1 2 3 4 5 6 7 8 9 10 11 12 13 14 15 16 17 18 19 20 21 22 23 24 25 26 27 28 29 30 31 32 33 34 35 36 37 38 39 40 41 42 43 44 45 46 47 48 49 50
000
ASUS43 KMKX 241807
RWRWI

WISCONSIN REGIONAL WEATHER ROUNDUP
NATIONAL WEATHER SERVICE MILWAUKEE/SULLIVAN WI
100 PM CDT SUN MAY 24 2015

NOTE: "FAIR" INDICATES FEW OR NO CLOUDS BELOW 12,000 FEET WITH NO
SIGNIFICANT WEATHER AND/OR OBSTRUCTIONS TO VISIBILITY.

WIZ001-002-006>008-014>016-023>028-241900-
NORTHWEST WISCONSIN

CITY           SKY/WX    TMP DP  RH WIND       PRES   REMARKS
SUPERIOR ARPT  CLOUDY    67  46  46 NE7       30.06F
ASHLAND        CLOUDY    71  50  47 N6        30.06F
6HR MIN TEMP:  56; 6HR MAX TEMP:  72;

HAYWARD        CLOUDY    73  48  41 E6        30.04F
6HR MIN TEMP:  56; 6HR MAX TEMP:  73;

SIREN          LGT RAIN  67  54  63 NE5       30.04F
CUMBERLAND     CLOUDY    68  48  49 S13       30.05F
RICE LAKE      CLOUDY    69  50  50 SE14      30.07S
CHETEK         CLOUDY    67  54  63 SE8       30.06F
LADYSMITH      CLOUDY    70  50  50 S7        30.09S
EAU CLAIRE     NOT AVBL
MENOMONIE      LGT RAIN  61  57  85 SE10      30.06F
NEW RICHMOND   LGT RAIN  63  55  74 S9        30.04F
OSCEOLA        LGT RAIN  65  55  69 S10       30.06S
$$

WIZ003>005-009-010-017-018-241900-
NORTH CENTRAL WISCONSIN

CITY           SKY/WX    TMP DP  RH WIND       PRES   REMARKS
MANITOWISH WTR CLOUDY    72  48  42 S9        30.09F
ARBOR VITAE    CLOUDY    72  46  38 S8        30.09F
WOODRUFF       CLOUDY    72  46  38 S8        30.09F
RHINELANDER    CLOUDY    73  46  38 S10       30.10F
6HR MIN TEMP:  58; 6HR MAX TEMP:  73;

EAGLE RIVER    CLOUDY    74  42  31 SW5       30.10F
LAND O LAKES   CLOUDY    76  40  28 S3        30.10F
PHILLIPS       CLOUDY    71  50  47 S10       30.08F
TOMAHAWK       CLOUDY    71  48  43 CALM      30.10F
MEDFORD        LGT RAIN  61  54  76 S12G17    30.12S
MERRILL        CLOUDY    68  51  55 SW14G21   30.12S
$$

WIZ029-030-035-036-043>047-241900-
CENTRAL WISCONSIN

CITY           SKY/WX    TMP DP  RH WIND       PRES   REMARKS
WAUSAU         LGT RAIN  62  54  74 S13       30.11S
6HR MIN TEMP:  56; 6HR MAX TEMP:  70; 6HR PCP: TRACE;

MOSINEE        DRIZZLE   61  57  88 S9        30.14F
MARSHFIELD     LGT RAIN  61  56  83 SE13      30.11F
6HR MIN TEMP:  58; 6HR MAX TEMP:  67; 6HR PCP: TRACE;

STEVENS POINT  LGT RAIN  59  55  85 S10G17    30.14F
WAUPACA        LGT RAIN  64  58  79 S8        30.15F
WAUTOMA        NOT AVBL
WISC RAPIDS    LGT RAIN  60  56  86 SE3       30.13F
6HR MIN TEMP:  59; 6HR MAX TEMP:  67; 6HR PCP:  0.07;

CAMP DOUGLAS   LGT RAIN  59  59 100 SE8       30.08F
$$

WIZ011>013-019>022-031-037>040-048>050-241900-
NORTHEAST WISCONSIN

CITY           SKY/WX    TMP DP  RH WIND       PRES   REMARKS
ANTIGO         CLOUDY    68  52  55 S12       30.12F
SHAWANO        CLOUDY    69  53  55 SW7       30.14S
OCONTO         CLOUDY    69  53  55 S5        30.12S
STURGEON BAY   CLOUDY    63  45  51 S9        30.15F
6HR MIN TEMP:  59; 6HR MAX TEMP:  70;

GREEN BAY      CLOUDY    69  54  58 SW14      30.15S
6HR MIN TEMP:  58; 6HR MAX TEMP:  72; 6HR PCP: TRACE;

MANITOWOC      NOT AVBL
APPLETON       LGT RAIN  61  54  77 S13       30.16S
CLINTONVILLE   DRIZZLE   66  52  59 S15G21    30.14S
OSHKOSH        LGT RAIN  62  56  80 S5        30.14F
6HR MIN TEMP:  59; 6HR MAX TEMP:  69; 6HR PCP:  0.06;

$$

WIZ032>034-041-042-053>061-241900-
SOUTHWEST WISCONSIN

CITY           SKY/WX    TMP DP  RH WIND       PRES   REMARKS
LA CROSSE      RAIN      61  58  90 E9        30.04F FOG
6HR MIN TEMP:  60; 6HR MAX TEMP:  62; 6HR PCP:  0.22;

SPARTA         LGT RAIN  58  56  91 E9        30.08F
VIROQUA        CLOUDY    57  57 100 SE13      30.06F
BOSCOBEL       LGT RAIN  60  57  89 E8        30.04F
6HR MIN TEMP:  57; 6HR MAX TEMP:  61; 6HR PCP:  0.38;

PRAIRIE DU CHI LGT RAIN  59  56  89 E7        30.02F
PLATTEVILLE    CLOUDY    59  57  95 E15       30.04F
$$

WIZ056-057-062-063-064-067-068-241900-
SOUTH CENTRAL WISCONSIN

CITY           SKY/WX    TMP DP  RH WIND       PRES   REMARKS
REEDSBURG      RAIN      57  56  96 E7        30.09F
BARABOO/DELLS  LGT RAIN  57  55  91 E7        30.10F
LONE ROCK      NOT AVBL
MINERAL POINT  RAIN      59  55  88 E10       30.07F
MADISON        LGT RAIN  61  56  83 E10       30.09F
6HR MIN TEMP:  60; 6HR MAX TEMP:  63; 6HR PCP:  0.11;

MIDDLETON      CLOUDY    61  57  86 E9        30.10F
WATERTOWN      LGT RAIN  61  61  99 E7        30.11F
MONROE         LGT RAIN  61  55  82 E10G17    30.07F
JANESVILLE     PTSUNNY   66  55  68 E10       30.08F
$$

WIZ051-052-058>065-066-070>072-241900-
SOUTHEAST WISCONSIN

CITY           SKY/WX    TMP DP  RH WIND       PRES   REMARKS
MILWAUKEE      CLOUDY    63  56  78 NE8       30.14F
6HR MIN TEMP:  60; 6HR MAX TEMP:  67; 6HR PCP:  0.06;

WAUKESHA       CLOUDY    63  55  77 E9        30.14F
MILWAUKEE/TIMM DRIZZLE   64  55  72 E5        30.14F
RACINE         CLOUDY    65  54  67 NE6       30.15F
6HR MIN TEMP:  59; 6HR MAX TEMP:  67; 6HR PCP:  0.01;

BURLINGTON     LGT RAIN  63  56  79 E8        30.12F
KENOSHA        CLOUDY    65  53  65 E13       30.12F
6HR MIN TEMP:  60; 6HR MAX TEMP:  68; 6HR PCP: TRACE;

FOND DU LAC    LGT RAIN  62  56  80 E6        30.14F
6HR MIN TEMP:  61; 6HR MAX TEMP:  69; 6HR PCP:  0.07;

SHEBOYGAN      LGT RAIN  63  57  81 S6        30.16F
6HR MIN TEMP:  54; 6HR MAX TEMP:  68; 6HR PCP:  0.05;

WEST BEND      LGT RAIN  63  55  77 CALM      30.16F
JUNEAU         DRIZZLE   61  56  85 SE8       30.15F
$$

LSZ147-162-241900-
LAKE SUPERIOR

STATION/POSITION TIME  TEMP    WIND        PRES    WAVE
                       AIR SEA DIR/SP/G            HT/PER
                 (UTC) (F)     (DEG/KT/KT) (MB)    (FT/S)
W MID LAKE BUOY  1650   45 37  200/  8/ 10   N/A     0
DEVILS ISLAND    1700   65      CALM  /  1   N/A
PORT WING        1700   55     350/  2/  2   N/A
SAXON HARBOR     1740   59        CALM       N/A
$$

LMZ867-665-643>646-241900-
LAKE MICHIGAN

STATION/POSITION TIME  TEMP    WIND        PRES    WAVE
                       AIR SEA DIR/SP/G            HT/PER
                 (UTC) (F)     (DEG/KT/KT) (MB)    (FT/S)
CHAMBERS ISLAND  1600   69     340/  2/  3   N/A
N MID LAKE BUOY  1650   43 36  180/  6/  8   N/A     0
NORTHPORT PIER   1700   54     160/  7/ 11   N/A
SISTER BAY       1717   71        CALM       N/A
KEWAUNEE LAKESHO 1700   50     180/ 11/ 13   N/A
SHEBOYGAN LAKESH 1700   64     190/ 10/ 10   N/A
PORT WASHINGTON  1700   53      50/  2/  3   N/A
ATWATER BUOY     1700   51 46  150/  4/  6   N/A
MILWAUKEE LAKESH 1700   52     190/  2/  4   N/A
S MID LAKE BUOY  1650   47 38  120/  4/  4   N/A     0
KENOSHA   LAKESH 1700   53      40/  5/  5   N/A
$$

TC  - TEMPERATURE IN CELSIUS
VSB - VISIBILITY IN STATUTE MILES
WCI - WIND CHILL INDEX
HX  - HEAT INDEX



USA.gov is the U.S. government's official web portal to all federal, state and local government web resources and services.